| time (UTC) | temp C | wind direction | speed KPH | gust KPH | rain 1hr cm | rain 24hr cm | rain mn cm | humidity % | barometer mb |
| 20260505035444 | 17 | 102 | 12.9 | 16.1 | 0.00 | 0.00 | 0.00 | 60 | 1015.7 |
| 20260505034942 | 17 | 124 | 8.0 | 12.9 | 0.00 | 0.00 | 0.00 | 60 | 1015.6 |
| 20260505034438 | 17 | 102 | 8.0 | 12.9 | 0.00 | 0.00 | 0.00 | 59 | 1015.8 |
| 20260505033935 | 18 | 129 | 4.8 | 20.9 | 0.00 | 0.00 | 0.00 | 59 | 1015.5 |
| 20260505033432 | 18 | 107 | 4.8 | 9.7 | 0.00 | 0.00 | 0.00 | 59 | 1015.4 |
| 20260505032930 | 18 | 103 | 11.3 | 14.5 | 0.00 | 0.00 | 0.00 | 59 | 1015.6 |
| 20260505032427 | 18 | 75 | 6.4 | 14.5 | 0.00 | 0.00 | 0.00 | 59 | 1015.6 |
| 20260505031923 | 18 | 112 | 9.7 | 20.9 | 0.00 | 0.00 | 0.00 | 58 | 1015.5 |
| 20260505031420 | 18 | 89 | 6.4 | 24.1 | 0.00 | 0.00 | 0.00 | 58 | 1015.6 |
| 20260505030917 | 18 | 87 | 9.7 | 12.9 | 0.00 | 0.00 | 0.00 | 58 | 1015.5 |
| 20260505030413 | 18 | 96 | 6.4 | 17.7 | 0.00 | 0.00 | 0.00 | 58 | 1015.4 |
| 20260505025909 | 18 | 124 | 11.3 | 14.5 | 0.00 | 0.00 | 0.00 | 58 | 1015.6 |
| 20260505025406 | 18 | 103 | 4.8 | 20.9 | 0.00 | 0.00 | 0.00 | 58 | 1015.4 |
| 20260505024905 | 18 | 88 | 4.8 | 14.5 | 0.00 | 0.00 | 0.00 | 58 | 1015.6 |
| 20260505024402 | 18 | 102 | 3.2 | 9.7 | 0.00 | 0.00 | 0.00 | 57 | 1015.3 |
| 20260505023859 | 19 | 135 | 19.3 | 24.1 | 0.00 | 0.00 | 0.00 | 57 | 1015.5 |
| 20260505023356 | 19 | 115 | 6.4 | 14.5 | 0.00 | 0.00 | 0.00 | 56 | 1015.5 |
| 20260505022853 | 19 | 87 | 9.7 | 19.3 | 0.00 | 0.00 | 0.00 | 55 | 1015.5 |
| 20260505022350 | 19 | 113 | 12.9 | 14.5 | 0.00 | 0.00 | 0.00 | 54 | 1015.5 |
| 20260505021848 | 19 | 115 | 8.0 | 14.5 | 0.00 | 0.00 | 0.00 | 53 | 1015.3 |
| 20260505021344 | 19 | 80 | 6.4 | 11.3 | 0.00 | 0.00 | 0.00 | 52 | 1015.3 |
| 20260505020840 | 20 | 131 | 12.9 | 16.1 | 0.00 | 0.00 | 0.00 | 51 | 1015.3 |
| 20260505020336 | 20 | 82 | 6.4 | 16.1 | 0.00 | 0.00 | 0.00 | 50 | 1015.3 |
| 20260505015833 | 20 | 111 | 6.4 | 16.1 | 0.00 | 0.00 | 0.00 | 49 | 1015.1 |
| 20260505015330 | 20 | 109 | 6.4 | 9.7 | 0.00 | 0.00 | 0.00 | 45 | 1015.0 |
| 20260505014827 | 20 | 73 | 9.7 | 12.9 | 0.00 | 0.00 | 0.00 | 45 | 1015.1 |
| 20260505014324 | 20 | 86 | 4.8 | 9.7 | 0.00 | 0.00 | 0.00 | 45 | 1015.2 |
| 20260505013820 | 19 | 92 | 4.8 | 8.0 | 0.00 | 0.00 | 0.00 | 45 | 1014.9 |
| 20260505013318 | 20 | 95 | 3.2 | 9.7 | 0.00 | 0.00 | 0.00 | 45 | 1014.8 |
| 20260505012816 | 20 | 110 | 4.8 | 9.7 | 0.00 | 0.00 | 0.00 | 45 | 1014.7 |
| 20260505012314 | 20 | 86 | 3.2 | 6.4 | 0.00 | 0.00 | 0.00 | 45 | 1014.8 |
| 20260505011809 | 20 | 83 | 4.8 | 6.4 | 0.00 | 0.00 | 0.00 | 45 | 1014.7 |
| 20260505011306 | 20 | 97 | 4.8 | 11.3 | 0.00 | 0.00 | 0.00 | 44 | 1014.7 |
| 20260505010802 | 19 | 109 | 3.2 | 6.4 | 0.00 | 0.00 | 0.00 | 45 | 1014.4 |
| 20260505010258 | 20 | 93 | 4.8 | 6.4 | 0.00 | 0.00 | 0.00 | 45 | 1014.5 |
| 20260505005754 | 20 | 107 | 3.2 | 8.0 | 0.00 | 0.00 | 0.00 | 45 | 1014.5 |
| 20260505005252 | 19 | 93 | 1.6 | 4.8 | 0.00 | 0.00 | 0.00 | 46 | 1014.4 |
| 20260505004749 | 20 | 95 | 3.2 | 4.8 | 0.00 | 0.00 | 0.00 | 45 | 1014.3 |
| 20260505004245 | 20 | 70 | 3.2 | 4.8 | 0.00 | 0.00 | 0.00 | 45 | 1014.4 |
| 20260505003742 | 20 | 122 | 3.2 | 6.4 | 0.00 | 0.00 | 0.00 | 43 | 1014.2 |
| 20260505003240 | 20 | 84 | 1.6 | 6.4 | 0.00 | 0.00 | 0.00 | 43 | 1014.3 |
| 20260505002736 | 20 | 86 | 4.8 | 4.8 | 0.00 | 0.00 | 0.00 | 43 | 1014.4 |
| 20260505002234 | 20 | 83 | 3.2 | 4.8 | 0.00 | 0.00 | 0.00 | 42 | 1014.1 |
| 20260505001731 | 21 | 105 | 3.2 | 4.8 | 0.00 | 0.00 | 0.00 | 41 | 1014.0 |
| 20260505001229 | 21 | 93 | 3.2 | 4.8 | 0.00 | 0.00 | 0.00 | 40 | 1014.0 |
| 20260505000725 | 21 | 82 | 4.8 | 6.4 | 0.00 | 0.00 | 0.00 | 39 | 1014.0 |
| 20260505000226 | 21 | 104 | 3.2 | 4.8 | 0.00 | 0.00 | 0.00 | 39 | 1013.9 |
| 20260504235719 | 22 | 112 | 3.2 | 4.8 | 0.00 | 0.00 | 0.00 | 38 | 1013.9 |
| 20260504235215 | 22 | 83 | 1.6 | 6.4 | 0.00 | 0.00 | 0.00 | 38 | 1014.0 |
| 20260504234713 | 22 | 87 | 6.4 | 6.4 | 0.00 | 0.00 | 0.00 | 37 | 1013.7 |
| 20260504234210 | 22 | 99 | 3.2 | 6.4 | 0.00 | 0.00 | 0.00 | 36 | 1013.8 |
| 20260504233706 | 23 | 84 | 4.8 | 4.8 | 0.00 | 0.00 | 0.00 | 36 | 1013.7 |
| 20260504233202 | 23 | 122 | 3.2 | 4.8 | 0.00 | 0.00 | 0.00 | 33 | 1013.5 |
| 20260504232700 | 23 | 116 | 1.6 | 6.4 | 0.00 | 0.00 | 0.00 | 33 | 1013.7 |
| 20260504232156 | 24 | 146 | 3.2 | 8.0 | 0.00 | 0.00 | 0.00 | 32 | 1013.5 |
| 20260504231653 | 24 | 126 | 6.4 | 6.4 | 0.00 | 0.00 | 0.00 | 30 | 1013.4 |
| 20260504231150 | 24 | 151 | 6.4 | 12.9 | 0.00 | 0.00 | 0.00 | 30 | 1013.6 |
| 20260504230646 | 24 | 111 | 4.8 | 11.3 | 0.00 | 0.00 | 0.00 | 30 | 1013.6 |
| 20260504230145 | 25 | 134 | 8.0 | 17.7 | 0.00 | 0.00 | 0.00 | 29 | 1013.6 |
| 20260504225643 | 25 | 122 | 8.0 | 9.7 | 0.00 | 0.00 | 0.00 | 28 | 1013.7 |
| 20260504225138 | 26 | 133 | 4.8 | 6.4 | 0.00 | 0.00 | 0.00 | 29 | 1013.4 |
| 20260504224635 | 26 | 142 | 4.8 | 9.7 | 0.00 | 0.00 | 0.00 | 29 | 1013.7 |
| 20260504224132 | 26 | 134 | 4.8 | 9.7 | 0.00 | 0.00 | 0.00 | 29 | 1013.6 |
| 20260504223629 | 26 | 112 | 4.8 | 11.3 | 0.00 | 0.00 | 0.00 | 29 | 1013.7 |
| 20260504223125 | 26 | 121 | 3.2 | 14.5 | 0.00 | 0.00 | 0.00 | 30 | 1013.7 |
| 20260504222622 | 25 | 115 | 4.8 | 19.3 | 0.00 | 0.00 | 0.00 | 29 | 1013.6 |
| 20260504222120 | 26 | 187 | 4.8 | 12.9 | 0.00 | 0.00 | 0.00 | 29 | 1013.7 |
| 20260504221616 | 26 | 106 | 4.8 | 19.3 | 0.00 | 0.00 | 0.00 | 29 | 1013.6 |
| 20260504221114 | 26 | 82 | 4.8 | 6.4 | 0.00 | 0.00 | 0.00 | 28 | 1013.5 |
| 20260504220610 | 26 | 134 | 8.0 | 16.1 | 0.00 | 0.00 | 0.00 | 29 | 1013.6 |
| 20260504220108 | 26 | 163 | 12.9 | 14.5 | 0.00 | 0.00 | 0.00 | 29 | 1013.7 |
| 20260504215603 | 26 | 144 | 8.0 | 14.5 | 0.00 | 0.00 | 0.00 | 29 | 1013.7 |
| 20260504215101 | 26 | 162 | 11.3 | 12.9 | 0.00 | 0.00 | 0.00 | 29 | 1013.5 |
| 20260504214557 | 26 | 174 | 14.5 | 17.7 | 0.00 | 0.00 | 0.00 | 29 | 1013.8 |
| 20260504214053 | 26 | 129 | 9.7 | 12.9 | 0.00 | 0.00 | 0.00 | 29 | 1013.7 |
| 20260504213550 | 26 | 140 | 4.8 | 11.3 | 0.00 | 0.00 | 0.00 | 31 | 1013.8 |
| 20260504213047 | 26 | 108 | 11.3 | 17.7 | 0.00 | 0.00 | 0.00 | 29 | 1013.8 |
| 20260504212543 | 26 | 136 | 6.4 | 9.7 | 0.00 | 0.00 | 0.00 | 28 | 1013.9 |
| 20260504212040 | 26 | 140 | 12.9 | 16.1 | 0.00 | 0.00 | 0.00 | 29 | 1013.7 |
| 20260504211537 | 26 | 148 | 6.4 | 14.5 | 0.00 | 0.00 | 0.00 | 29 | 1013.6 |
| 20260504211034 | 26 | 175 | 9.7 | 17.7 | 0.00 | 0.00 | 0.00 | 29 | 1013.6 |
| 20260504210531 | 26 | 107 | 6.4 | 14.5 | 0.00 | 0.00 | 0.00 | 30 | 1013.7 |
| 20260504210027 | 26 | 140 | 8.0 | 12.9 | 0.00 | 0.00 | 0.00 | 30 | 1013.9 |
| 20260504205526 | 26 | 117 | 3.2 | 9.7 | 0.00 | 0.00 | 0.00 | 32 | 1013.8 |
| 20260504205023 | 26 | 102 | 4.8 | 14.5 | 0.00 | 0.00 | 0.00 | 29 | 1013.7 |
| 20260504204521 | 26 | 146 | 9.7 | 14.5 | 0.00 | 0.00 | 0.00 | 30 | 1014.0 |
| 20260504204020 | 26 | 149 | 12.9 | 12.9 | 0.00 | 0.00 | 0.00 | 29 | 1014.0 |
| 20260504203518 | 26 | 214 | 4.8 | 20.9 | 0.00 | 0.00 | 0.00 | 28 | 1014.1 |
| 20260504203015 | 26 | 110 | 3.2 | 24.1 | 0.00 | 0.00 | 0.00 | 32 | 1014.0 |
| 20260504202510 | 26 | 182 | 8.0 | 12.9 | 0.00 | 0.00 | 0.00 | 31 | 1014.2 |
| 20260504202007 | 26 | 193 | 4.8 | 12.9 | 0.00 | 0.00 | 0.00 | 33 | 1014.2 |
| 20260504201504 | 26 | 148 | 8.0 | 14.5 | 0.00 | 0.00 | 0.00 | 32 | 1014.2 |
| 20260504201002 | 26 | 131 | 6.4 | 16.1 | 0.00 | 0.00 | 0.00 | 32 | 1014.1 |
| 20260504200458 | 25 | 137 | 17.7 | 17.7 | 0.00 | 0.00 | 0.00 | 30 | 1014.3 |
| 20260504195955 | 25 | 173 | 8.0 | 22.5 | 0.00 | 0.00 | 0.00 | 30 | 1014.2 |
| 20260504195451 | 25 | 183 | 12.9 | 22.5 | 0.00 | 0.00 | 0.00 | 31 | 1014.2 |
| 20260504194948 | 25 | 204 | 8.0 | 22.5 | 0.00 | 0.00 | 0.00 | 31 | 1014.3 |
| 20260504194444 | 25 | 184 | 11.3 | 11.3 | 0.00 | 0.00 | 0.00 | 31 | 1014.4 |
| 20260504193940 | 25 | 196 | 8.0 | 14.5 | 0.00 | 0.00 | 0.00 | 33 | 1014.6 |
| 20260504193437 | 25 | 146 | 17.7 | 25.7 | 0.00 | 0.00 | 0.00 | 30 | 1014.7 |
| 20260504192936 | 25 | 174 | 9.7 | 20.9 | 0.00 | 0.00 | 0.00 | 31 | 1014.7 |
| 20260504192432 | 25 | 168 | 8.0 | 17.7 | 0.00 | 0.00 | 0.00 | 31 | 1014.6 |
| 20260504191932 | 25 | 142 | 11.3 | 17.7 | 0.00 | 0.00 | 0.00 | 30 | 1014.6 |
| 20260504191430 | 25 | 150 | 4.8 | 17.7 | 0.00 | 0.00 | 0.00 | 29 | 1014.6 |
| 20260504190930 | 25 | 124 | 8.0 | 16.1 | 0.00 | 0.00 | 0.00 | 30 | 1014.6 |
| 20260504190425 | 25 | 139 | 16.1 | 17.7 | 0.00 | 0.00 | 0.00 | 31 | 1014.8 |
| 20260504185923 | 25 | 174 | 9.7 | 14.5 | 0.00 | 0.00 | 0.00 | 32 | 1014.9 |
| 20260504185420 | 25 | 118 | 14.5 | 27.4 | 0.00 | 0.00 | 0.00 | 31 | 1014.9 |
| 20260504184915 | 24 | 151 | 9.7 | 9.7 | 0.00 | 0.00 | 0.00 | 32 | 1014.8 |
| 20260504184411 | 23 | 150 | 9.7 | 11.3 | 0.00 | 0.00 | 0.00 | 30 | 1015.0 |
| 20260504183908 | 24 | 208 | 3.2 | 16.1 | 0.00 | 0.00 | 0.00 | 32 | 1014.8 |
| 20260504183405 | 25 | 134 | 8.0 | 16.1 | 0.00 | 0.00 | 0.00 | 33 | 1015.1 |
| 20260504182903 | 25 | 137 | 3.2 | 19.3 | 0.00 | 0.00 | 0.00 | 30 | 1015.1 |
| 20260504182400 | 24 | 119 | 4.8 | 9.7 | 0.00 | 0.00 | 0.00 | 32 | 1015.3 |
| 20260504181856 | 23 | 84 | 6.4 | 16.1 | 0.00 | 0.00 | 0.00 | 31 | 1015.2 |
| 20260504181354 | 23 | 153 | 9.7 | 17.7 | 0.00 | 0.00 | 0.00 | 30 | 1015.3 |
| 20260504180853 | 24 | 157 | 11.3 | 19.3 | 0.00 | 0.00 | 0.00 | 31 | 1015.4 |
| 20260504180351 | 23 | 120 | 6.4 | 12.9 | 0.00 | 0.00 | 0.00 | 31 | 1015.3 |
| 20260504175849 | 23 | 104 | 6.4 | 20.9 | 0.00 | 0.00 | 0.00 | 33 | 1015.3 |
| 20260504175345 | 23 | 140 | 9.7 | 24.1 | 0.00 | 0.00 | 0.00 | 34 | 1015.3 |
| 20260504174843 | 23 | 76 | 4.8 | 14.5 | 0.00 | 0.00 | 0.00 | 36 | 1015.6 |
| 20260504174341 | 23 | 126 | 9.7 | 14.5 | 0.00 | 0.00 | 0.00 | 33 | 1015.6 |
| 20260504173837 | 23 | 129 | 8.0 | 19.3 | 0.00 | 0.00 | 0.00 | 33 | 1015.5 |
| 20260504173334 | 23 | 238 | 11.3 | 19.3 | 0.00 | 0.00 | 0.00 | 33 | 1015.7 |
| 20260504172831 | 23 | 146 | 8.0 | 12.9 | 0.00 | 0.00 | 0.00 | 35 | 1015.7 |
| 20260504172328 | 23 | 132 | 9.7 | 12.9 | 0.00 | 0.00 | 0.00 | 34 | 1015.8 |
| 20260504171824 | 23 | 285 | 0.0 | 8.0 | 0.00 | 0.00 | 0.00 | 36 | 1015.9 |
| 20260504171321 | 23 | 172 | 14.5 | 22.5 | 0.00 | 0.00 | 0.00 | 34 | 1016.0 |
| 20260504170818 | 23 | 154 | 11.3 | 17.7 | 0.00 | 0.00 | 0.00 | 36 | 1016.2 |
| 20260504170315 | 22 | 138 | 0.0 | 8.0 | 0.00 | 0.00 | 0.00 | 40 | 1016.1 |
| 20260504160233 | 21 | 54 | 11.3 | 16.1 | 0.00 | 0.00 | 0.00 | 45 | 1016.7 |
| 20260504150658 | 20 | 169 | 14.5 | 17.7 | 0.00 | 0.00 | 0.00 | 48 | 1017.3 |
| 20260504150155 | 20 | 170 | 9.7 | 14.5 | 0.00 | 0.00 | 0.00 | 51 | 1017.1 |
| 20260504141124 | 17 | 152 | 3.2 | 8.0 | 0.00 | 0.00 | 0.00 | 60 | 1017.4 |
| 20260504140621 | 17 | 153 | 8.0 | 14.5 | 0.00 | 0.00 | 0.00 | 58 | 1017.4 |
| 20260504140117 | 17 | 152 | 8.0 | 12.9 | 0.00 | 0.00 | 0.00 | 60 | 1017.4 |
| 20260504130545 | 14 | 115 | 4.8 | 8.0 | 0.00 | 0.00 | 0.00 | 71 | 1017.8 |
| 20260504110432 | 8 | 73 | 3.2 | 6.4 | 0.00 | 0.00 | 0.00 | 90 | 1017.8 |
| 20260504100349 | 6 | 85 | 3.2 | 6.4 | 0.00 | 0.00 | 0.00 | 92 | 1017.2 |
| 20260504081742 | 6 | 87 | 3.2 | 3.2 | 0.00 | 0.00 | 0.00 | 81 | 1017.6 |
| 20260504081239 | 7 | 101 | 3.2 | 4.8 | 0.00 | 0.00 | 0.00 | 80 | 1017.7 |
| 20260504080735 | 7 | 93 | 3.2 | 4.8 | 0.00 | 0.00 | 0.00 | 80 | 1017.4 |
| 20260504080232 | 7 | 107 | 3.2 | 4.8 | 0.00 | 0.00 | 0.00 | 80 | 1017.6 |
| 20260504070159 | 7 | 95 | 3.2 | 4.8 | 0.00 | 0.00 | 0.00 | 75 | 1017.6 |
| 20260504060120 | 7 | 107 | 4.8 | 6.4 | 0.00 | 0.00 | 0.00 | 73 | 1017.7 |
| 20260504050548 | 7 | 100 | 3.2 | 4.8 | 0.00 | 0.00 | 0.00 | 75 | 1017.8 |
| 20260504045542 | 7 | 79 | 3.2 | 4.8 | 0.00 | 0.00 | 0.00 | 77 | 1017.7 |
| 20260504045037 | 7 | 103 | 1.6 | 4.8 | 0.00 | 0.00 | 0.00 | 78 | 1017.8 |
| 20260504044535 | 7 | 68 | 3.2 | 4.8 | 0.00 | 0.00 | 0.00 | 79 | 1017.9 |
| 20260504044032 | 7 | 83 | 3.2 | 4.8 | 0.00 | 0.00 | 0.00 | 80 | 1018.1 |
| 20260504043529 | 7 | 68 | 3.2 | 3.2 | 0.00 | 0.00 | 0.00 | 80 | 1017.8 |
| 20260504043026 | 7 | 85 | 3.2 | 6.4 | 0.00 | 0.00 | 0.00 | 80 | 1018.0 |
| 20260504042523 | 7 | 79 | 3.2 | 3.2 | 0.00 | 0.00 | 0.00 | 79 | 1018.1 |
| 20260504042020 | 7 | 100 | 3.2 | 3.2 | 0.00 | 0.00 | 0.00 | 79 | 1017.8 |
| 20260504041516 | 7 | 108 | 3.2 | 4.8 | 0.00 | 0.00 | 0.00 | 79 | 1017.9 |
| 20260504041012 | 7 | 85 | 3.2 | 3.2 | 0.00 | 0.00 | 0.00 | 80 | 1017.9 |
| 20260504040509 | 7 | 83 | 1.6 | 3.2 | 0.00 | 0.00 | 0.00 | 79 | 1017.9 |
| 20260504040006 | 7 | 62 | 1.6 | 4.8 | 0.00 | 0.00 | 0.00 | 79 | 1017.7 |